Flag for Hong Kong

Past Weather in 22°23'24"N, 114°12'28"E, Hong Kong — Yesterday and Last 2 Weeks

Now
84 °F

Passing clouds.


Feels Like: 92 °F
Forecast: 90 / 82 °F
Wind: 3 mph from Southwest

Location: Hong Kong International Airport

Current Time: Aug 10, 2020 at 5:17:17 am

Latest Report: Aug 10, 2020 at 4:30 am


Visibility: N/A

Pressure: 29.65 "Hg

Humidity: 74%

Dew Point: 75 °F

Location of 22°23'24"N, 114°12'28"ELocation

Past Weather in 22°23'24"N, 114°12'28"E — Graph

°F

22°23'24"N, 114°12'28"E Temperature Yesterday

Maximum temperature yesterday: 91 °F (at 2:00 pm)
Minimum temperature yesterday: 82 °F (at 1:00 am)
Average temperature yesterday: 86 °F

High & Low Weather Summary for the Past Weeks

 TemperatureHumidityPressure
High97 °F (Jul 28, 3:00 pm)100% (Aug 3, 8:30 am)29.89 "Hg (Aug 3, 8:30 am)
Low77 °F (Aug 6, 1:00 am)44% (Jul 28, 12:30 pm)29.59 "Hg (Jul 31, 4:30 pm)
Average85 °F76%29.70 "Hg
* Reported Jul 26 4:00 am — Aug 10 4:00 am, 22°23'24"N, 114°12'28"E. Weather by CustomWeather, © 2020

Note: Actual official high and low records may vary slightly from our data, if they occured in-between our weather recording intervals... More about our weather records

22°23'24"N, 114°12'28"E Weather History for the Previous 24 Hours

Scroll right to see more
 ConditionsComfort  
Time TempWeatherWind HumidityBarometerVisibility
4:00 am
Mon, Aug 10
84 °FPassing clouds.3 mph74%29.65 "HgN/A
3:30 am84 °FPassing clouds.3 mph74%29.65 "HgN/A
3:00 am84 °FPassing clouds.3 mph74%29.65 "HgN/A
2:30 am84 °FPassing clouds.8 mph74%29.65 "HgN/A
2:00 am84 °FPassing clouds.7 mph74%29.65 "HgN/A
1:30 am84 °FPassing clouds.6 mph74%29.65 "HgN/A
1:00 am84 °FPassing clouds.7 mph74%29.65 "HgN/A
12:30 am84 °FPassing clouds.3 mph74%29.65 "HgN/A
12:00 am84 °FPassing clouds.3 mph74%29.65 "HgN/A
11:30 pm
Sun, Aug 9
84 °FPassing clouds.5 mph74%29.65 "HgN/A
11:00 pm84 °FPassing clouds.3 mph74%29.65 "HgN/A
10:30 pm84 °FPassing clouds.2 mph74%29.65 "HgN/A
10:00 pm84 °FPassing clouds.3 mph74%29.65 "HgN/A
9:30 pm84 °FPassing clouds.7 mph74%29.65 "HgN/A
9:00 pm84 °FPassing clouds.13 mph79%29.62 "HgN/A
8:30 pm86 °FPassing clouds.12 mph75%29.62 "HgN/A
8:00 pm86 °FPassing clouds.14 mph70%29.62 "HgN/A
7:30 pm86 °FPassing clouds.15 mph70%29.62 "HgN/A
7:00 pm86 °FPassing clouds.15 mph70%29.62 "HgN/A
6:30 pm88 °FPassing clouds.16 mph62%29.59 "HgN/A
6:00 pm88 °FPassing clouds.17 mph66%29.59 "HgN/A
5:30 pm88 °FPassing clouds.16 mph66%29.59 "HgN/A
5:00 pm90 °FPassing clouds.12 mph63%29.59 "HgN/A
4:30 pm90 °FPassing clouds.8 mph63%29.59 "HgN/A
4:00 pm90 °FPassing clouds.7 mph67%29.59 "HgN/A
3:30 pm91 °FPassing clouds.10 mph63%29.62 "HgN/A
3:00 pm91 °FPassing clouds.10 mph59%29.62 "HgN/A
2:30 pm91 °FPassing clouds.9 mph59%29.62 "HgN/A
2:00 pm91 °FPassing clouds.10 mph59%29.62 "HgN/A
1:30 pm90 °FPassing clouds.9 mph59%29.62 "HgN/A
1:00 pm90 °FPassing clouds.8 mph63%29.65 "HgN/A
12:30 pm90 °FPassing clouds.8 mph63%29.65 "HgN/A
12:00 pm90 °FPassing clouds.7 mph59%29.65 "HgN/A
11:30 am90 °FPassing clouds.7 mph63%29.65 "HgN/A
11:00 am88 °FPassing clouds.7 mph66%29.68 "HgN/A
10:30 am88 °FPassing clouds.7 mph70%29.68 "HgN/A
10:00 am88 °FPassing clouds.6 mph70%29.68 "HgN/A
9:30 am86 °FPassing clouds.3 mph75%29.68 "HgN/A
9:00 am86 °FPassing clouds.3 mph75%29.68 "HgN/A
8:30 am86 °FPassing clouds.5 mph75%29.68 "HgN/A
8:00 am86 °FPassing clouds.3 mph75%29.68 "HgN/A
7:30 am86 °FPassing clouds.3 mph75%29.68 "HgN/A
7:00 am84 °FPassing clouds.3 mph79%29.68 "HgN/A
6:30 am82 °FPassing clouds.3 mph79%29.68 "HgN/A
6:00 am82 °FPassing clouds.3 mph74%29.65 "HgN/A
5:30 am82 °FPassing clouds.2 mph79%29.65 "HgN/A
5:00 am82 °FPassing clouds.3 mph74%29.65 "HgN/A
Weather by CustomWeather, © 2020

See weather overview